Portada
METAR-TAF:

METAR-TAF

Aeropuertos :

Valence, Francia

latitud: 44-54-58N, longitud: 4-58-06E, altitud: 160 m

Observación

El informe se hizo hace 18 minutos, a las 13:30 UTC
Viento 6 kt del norte-noreste, variando entre norte-noroeste y este-noreste
Temperatura 20°C
Humedad 40%
Presión 1009 hPa
Visibilidad 10 km o más
Cielo nuboso a una altura de 5600 ft
Cielo cubierto a una altura de 15000 ft

METAR: LFLU 261330Z AUTO 02006KT 330V070 9999 BKN056 OVC150 20/06 Q1009

Hora: 15:48 (13:48 UTC)


TAF: falta

Observaciones y pronósticos meteorológicos de más de 4000 aeropuertos (mensajes METAR y TAF).

Los puntos amarillos y rojos representan las estaciones disponibles.

Ponga el ratón en el punto deseado para ver el nombre de la estación.

Haga clic para ver las observaciones y los pronósticos meteorológicos.

Para cambiar el mapa : haga clic en los botones verdes con una cruz de color negro para hacer un zoom, en el botón verde con un guión para alejar o en las flechas verdes para mapas adyacentes.


METAR-TAF: